Location: Seattle
(47.6060°N, 122.3310°W)
Time: 20:31:01
(UTC-08:00)

ISS - Visible Passes

Search period start: 21 January 2018 00:00
Search period end: 31 January 2018 00:00
Orbit: 402 x 407 km, 51.6° (Epoch: 22 January)

Date Brightness Start Highest point End Pass type
(mag) Time Alt. Az. Time Alt. Az. Time Alt. Az.
24 Jan -1.1 19:19:05 10° SSW 19:19:30 12° SSW 19:19:30 12° SSW visible
25 Jan -1.8 18:27:40 10° S 18:29:40 16° SE 18:29:40 16° SE visible
26 Jan -2.5 19:10:17 10° SW 19:12:25 34° SSW 19:12:25 34° SSW visible
27 Jan -2.7 18:18:17 10° SSW 18:21:12 31° SE 18:22:25 23° ESE visible
27 Jan -0.8 19:54:18 10° W 19:55:05 16° W 19:55:05 16° W visible
28 Jan -3.8 19:01:51 10° WSW 19:04:59 81° W 19:04:59 81° W visible
29 Jan -3.7 18:09:33 10° SW 18:12:46 61° SSE 18:14:50 20° ENE visible
29 Jan -1.2 19:46:11 10° W 19:47:30 21° WNW 19:47:30 21° WNW visible
30 Jan -3.5 18:53:38 10° W 18:56:52 55° NNW 18:57:17 49° NNE visible
